Time,TemperatureF,DewpointF,PressureIn,WindDirection,WindDirectionDegrees,WindSpeedMPH,WindSpeedGustMPH,Humidity,HourlyPrecipIn,Conditions,Clouds,dailyrainin,SoftwareType,DateUTC
2013-08-27 00:00:00,73.5,71.7,30.06,SSE,148,0.0,0.0,94,0.00,,CLR,0.52,VWS V14.01,2013-08-27 05:00:00,
2013-08-27 00:01:00,73.5,71.7,30.06,SSE,148,0.0,0.0,94,0.00,,OVC015,0.00,VWS V14.01,2013-08-27 05:01:00,
2013-08-27 00:06:00,73.5,71.7,30.06,SSE,148,0.0,0.0,94,0.00,,OVC015,0.00,VWS V14.01,2013-08-27 05:06:00,
2013-08-27 00:10:00,73.5,71.7,30.06,SSE,148,0.0,0.0,94,0.00,,CLR,0.00,VWS V14.01,2013-08-27 05:10:00,
2013-08-27 00:11:00,73.5,71.7,30.06,SSE,148,0.0,0.0,94,0.00,,OVC050,0.00,VWS V14.01,2013-08-27 05:11:00,
2013-08-27 00:16:00,73.5,71.7,30.05,SSE,148,0.0,0.0,94,0.00,,OVC050,0.00,VWS V14.01,2013-08-27 05:16:00,
2013-08-27 00:20:00,73.5,71.7,30.06,SSE,148,0.0,0.0,94,0.00,,CLR,0.00,VWS V14.01,2013-08-27 05:20:00,
2013-08-27 00:21:00,73.5,71.7,30.05,SSE,148,0.0,0.0,94,0.00,,OVC050,0.00,VWS V14.01,2013-08-27 05:21:00,
2013-08-27 00:26:00,73.5,71.7,30.05,SSE,148,0.0,0.0,94,0.00,,OVC050,0.00,VWS V14.01,2013-08-27 05:26:00,
2013-08-27 00:30:00,73.5,71.7,30.05,SSE,148,0.0,0.0,94,0.00,,CLR,0.00,VWS V14.01,2013-08-27 05:30:00,
2013-08-27 00:31:00,73.5,71.7,30.05,SSE,148,0.0,0.0,94,0.00,,OVC050,0.00,VWS V14.01,2013-08-27 05:31:00,
2013-08-27 00:36:00,73.5,71.7,30.05,SSE,148,0.0,0.0,94,0.00,,OVC050,0.00,VWS V14.01,2013-08-27 05:36:00,
2013-08-27 00:40:00,73.5,71.7,30.05,SSE,148,0.0,0.0,94,0.00,,CLR,0.00,VWS V14.01,2013-08-27 05:40:00,
2013-08-27 00:41:00,73.7,71.9,30.05,SSE,148,0.0,0.0,94,0.00,,OVC055,0.00,VWS V14.01,2013-08-27 05:41:00,
2013-08-27 00:46:00,73.7,71.9,30.05,SSE,148,0.0,0.0,94,0.00,,OVC055,0.00,VWS V14.01,2013-08-27 05:46:00,
2013-08-27 00:50:00,73.5,71.7,30.05,SSE,148,0.0,0.0,94,0.00,,CLR,0.00,VWS V14.01,2013-08-27 05:50:00,
2013-08-27 00:51:00,73.7,71.9,30.05,SSE,148,0.0,0.0,94,0.00,,OVC055,0.00,VWS V14.01,2013-08-27 05:51:00,
2013-08-27 00:56:00,73.7,71.9,30.05,SSE,148,0.0,0.0,94,0.00,,OVC055,0.00,VWS V14.01,2013-08-27 05:56:00,
2013-08-27 01:00:00,73.7,71.9,30.05,SSE,148,0.0,0.0,94,0.00,,CLR,0.00,VWS V14.01,2013-08-27 06:00:00,
2013-08-27 01:01:00,73.9,72.1,30.05,SSE,148,0.0,0.0,94,0.00,,OVC010,0.00,VWS V14.01,2013-08-27 06:01:00,
2013-08-27 01:06:00,73.9,72.1,30.05,SSE,148,0.0,0.0,94,0.00,,OVC010,0.00,VWS V14.01,2013-08-27 06:06:00,
2013-08-27 01:10:00,73.7,71.9,30.05,SSE,148,0.0,0.0,94,0.00,,CLR,0.00,VWS V14.01,2013-08-27 06:10:00,
2013-08-27 01:11:00,73.9,72.1,30.05,SSE,148,0.0,0.0,94,0.00,,OVC010,0.00,VWS V14.01,2013-08-27 06:11:00,
2013-08-27 01:16:00,73.9,72.1,30.05,SSE,148,0.0,0.0,94,0.00,,OVC010,0.00,VWS V14.01,2013-08-27 06:16:00,
2013-08-27 01:20:00,73.9,72.1,30.05,SSE,148,0.0,0.0,94,0.00,,CLR,0.00,VWS V14.01,2013-08-27 06:20:00,
2013-08-27 01:21:00,73.9,72.1,30.05,SSE,148,0.0,0.0,94,0.00,,OVC010,0.00,VWS V14.01,2013-08-27 06:21:00,
2013-08-27 01:26:00,73.9,72.1,30.05,SSE,148,0.0,0.0,94,0.00,,OVC010,0.00,VWS V14.01,2013-08-27 06:26:00,
2013-08-27 01:30:00,73.9,72.1,30.05,SSE,148,0.0,0.0,94,0.00,,CLR,0.00,VWS V14.01,2013-08-27 06:30:00,
2013-08-27 01:31:00,73.9,72.1,30.06,SSE,148,0.0,0.0,94,0.00,,OVC008,0.00,VWS V14.01,2013-08-27 06:31:00,
2013-08-27 01:36:00,73.9,72.1,30.06,SSE,148,0.0,0.0,94,0.00,,OVC008,0.00,VWS V14.01,2013-08-27 06:36:00,
2013-08-27 01:40:00,73.9,72.1,30.05,SSE,148,0.0,0.0,94,0.00,,CLR,0.00,VWS V14.01,2013-08-27 06:40:00,
2013-08-27 01:41:00,73.7,71.9,30.06,SSE,148,0.0,0.0,94,0.00,,OVC008,0.00,VWS V14.01,2013-08-27 06:41:00,
2013-08-27 01:46:00,73.7,71.9,30.06,SSE,148,0.0,0.0,94,0.00,,OVC008,0.00,VWS V14.01,2013-08-27 06:46:00,
2013-08-27 01:50:00,73.9,72.1,30.06,SSE,148,0.0,0.0,94,0.00,,CLR,0.00,VWS V14.01,2013-08-27 06:50:00,
2013-08-27 01:51:00,73.7,71.9,30.06,SSE,148,0.0,0.0,94,0.00,,OVC008,0.00,VWS V14.01,2013-08-27 06:51:00,
2013-08-27 01:56:00,73.5,71.7,30.06,SSE,148,0.0,0.0,94,0.00,,OVC008,0.00,VWS V14.01,2013-08-27 06:56:00,
2013-08-27 02:00:00,73.7,71.9,30.06,SSE,148,0.0,0.0,94,0.00,,CLR,0.00,VWS V14.01,2013-08-27 07:00:00,
2013-08-27 02:01:00,73.5,71.7,30.05,SSE,148,0.0,0.0,94,0.00,,OVC008,0.00,VWS V14.01,2013-08-27 07:01:00,
2013-08-27 02:06:00,73.5,71.7,30.05,SSE,148,0.0,0.0,94,0.00,,OVC008,0.00,VWS V14.01,2013-08-27 07:06:00,
2013-08-27 02:10:00,73.5,71.7,30.06,SSE,148,0.0,0.0,94,0.00,,CLR,0.00,VWS V14.01,2013-08-27 07:10:00,
2013-08-27 02:11:00,73.5,71.7,30.05,SSE,148,0.0,0.0,94,0.00,,OVC008,0.00,VWS V14.01,2013-08-27 07:11:00,
2013-08-27 02:16:00,73.5,71.7,30.05,SSE,148,0.0,0.0,94,0.00,,OVC008,0.00,VWS V14.01,2013-08-27 07:16:00,
2013-08-27 02:20:00,73.5,71.7,30.05,SSE,148,0.0,0.0,94,0.00,,CLR,0.00,VWS V14.01,2013-08-27 07:20:00,
2013-08-27 02:21:00,73.5,71.7,30.05,SSE,148,0.0,0.0,94,0.00,,OVC010,0.00,VWS V14.01,2013-08-27 07:21:00,
2013-08-27 02:26:00,73.5,71.7,30.05,SSE,148,0.0,0.0,94,0.00,,OVC010,0.00,VWS V14.01,2013-08-27 07:26:00,
2013-08-27 02:30:00,73.5,71.7,30.05,SSE,148,0.0,0.0,94,0.00,,CLR,0.00,VWS V14.01,2013-08-27 07:30:00,
2013-08-27 02:31:00,73.5,71.7,30.05,SSE,148,0.0,0.0,94,0.00,,OVC010,0.00,VWS V14.01,2013-08-27 07:31:00,
2013-08-27 02:36:00,73.5,71.7,30.05,SSE,148,0.0,0.0,94,0.00,,OVC010,0.00,VWS V14.01,2013-08-27 07:36:00,
2013-08-27 02:40:00,73.5,71.7,30.05,SSE,148,0.0,0.0,94,0.00,,CLR,0.00,VWS V14.01,2013-08-27 07:40:00,
2013-08-27 02:41:00,73.5,71.7,30.05,SSE,148,0.0,0.0,94,0.00,,OVC010,0.00,VWS V14.01,2013-08-27 07:41:00,
2013-08-27 02:46:00,73.5,71.7,30.05,SSE,148,0.0,0.0,94,0.00,,OVC010,0.00,VWS V14.01,2013-08-27 07:46:00,
2013-08-27 02:50:00,73.5,71.7,30.05,SSE,148,0.0,0.0,94,0.00,,CLR,0.00,VWS V14.01,2013-08-27 07:50:00,
2013-08-27 02:51:00,73.5,71.7,30.05,SSE,148,0.0,0.0,94,0.00,,OVC010,0.00,VWS V14.01,2013-08-27 07:51:00,
2013-08-27 02:56:00,73.5,71.7,30.05,SSE,148,0.0,0.0,94,0.00,,OVC010,0.00,VWS V14.01,2013-08-27 07:56:00,
2013-08-27 03:00:00,73.5,71.7,30.05,SSE,148,0.0,0.0,94,0.00,,CLR,0.00,VWS V14.01,2013-08-27 08:00:00,
2013-08-27 03:01:00,73.5,71.7,30.05,SSE,148,0.0,0.0,94,0.00,,OVC008,0.00,VWS V14.01,2013-08-27 08:01:00,
2013-08-27 03:06:00,73.5,71.7,30.05,SSE,148,0.0,0.0,94,0.00,,OVC008,0.00,VWS V14.01,2013-08-27 08:06:00,
2013-08-27 03:10:00,73.5,71.7,30.05,SSE,148,0.0,0.0,94,0.00,,CLR,0.00,VWS V14.01,2013-08-27 08:10:00,
2013-08-27 03:11:00,73.5,71.7,30.05,SSE,148,0.0,0.0,94,0.00,,OVC008,0.00,VWS V14.01,2013-08-27 08:11:00,
2013-08-27 03:16:00,73.4,71.6,30.05,SSE,148,0.0,0.0,94,0.00,,OVC008,0.00,VWS V14.01,2013-08-27 08:16:00,
2013-08-27 03:20:00,73.5,71.7,30.05,SSE,148,0.0,0.0,94,0.00,,CLR,0.00,VWS V14.01,2013-08-27 08:20:00,
2013-08-27 03:21:00,73.4,71.6,30.05,SSE,148,0.0,0.0,94,0.00,,OVC008,0.00,VWS V14.01,2013-08-27 08:21:00,
2013-08-27 03:26:00,73.4,71.6,30.05,SSE,148,0.0,0.0,94,0.00,,OVC008,0.00,VWS V14.01,2013-08-27 08:26:00,
2013-08-27 03:30:00,73.4,71.6,30.05,SSE,148,0.0,0.0,94,0.00,,CLR,0.00,VWS V14.01,2013-08-27 08:30:00,
2013-08-27 03:31:00,73.4,71.6,30.06,SSE,148,0.0,0.0,94,0.00,,OVC025,0.00,VWS V14.01,2013-08-27 08:31:00,
2013-08-27 03:36:00,73.4,71.6,30.06,SSE,148,0.0,0.0,94,0.00,,OVC025,0.00,VWS V14.01,2013-08-27 08:36:00,
2013-08-27 03:40:00,73.4,71.6,30.05,SSE,148,0.0,0.0,94,0.00,,CLR,0.00,VWS V14.01,2013-08-27 08:40:00,
2013-08-27 03:41:00,73.4,71.6,30.06,SSE,148,0.0,0.0,94,0.00,,OVC025,0.00,VWS V14.01,2013-08-27 08:41:00,
2013-08-27 03:46:00,73.4,71.6,30.06,SSE,148,0.0,0.0,94,0.00,,OVC025,0.00,VWS V14.01,2013-08-27 08:46:00,
2013-08-27 03:50:00,73.4,71.6,30.06,SSE,148,0.0,0.0,94,0.00,,CLR,0.00,VWS V14.01,2013-08-27 08:50:00,
2013-08-27 03:51:00,73.4,71.6,30.06,SSE,148,0.0,0.0,94,0.00,,OVC025,0.00,VWS V14.01,2013-08-27 08:51:00,
2013-08-27 03:56:00,73.4,71.6,30.06,SSE,148,0.0,0.0,94,0.00,,OVC025,0.00,VWS V14.01,2013-08-27 08:56:00,
2013-08-27 04:00:00,73.4,71.6,30.06,SSE,148,0.0,0.0,94,0.00,,CLR,0.00,VWS V14.01,2013-08-27 09:00:00,
2013-08-27 04:01:00,73.4,71.6,30.06,SSE,148,0.0,0.0,94,0.00,,OVC025,0.00,VWS V14.01,2013-08-27 09:01:00,
2013-08-27 04:06:00,73.4,71.6,30.06,SSE,148,0.0,0.0,94,0.00,,OVC025,0.00,VWS V14.01,2013-08-27 09:06:00,
2013-08-27 04:10:00,73.4,71.6,30.06,SSE,148,0.0,0.0,94,0.00,,CLR,0.00,VWS V14.01,2013-08-27 09:10:00,
2013-08-27 04:11:00,73.4,71.6,30.06,SSE,148,0.0,0.0,94,0.00,,OVC025,0.00,VWS V14.01,2013-08-27 09:11:00,
2013-08-27 04:16:00,73.4,71.6,30.05,SSE,148,0.0,0.0,94,0.00,,OVC025,0.00,VWS V14.01,2013-08-27 09:16:00,
2013-08-27 04:20:00,73.4,71.6,30.06,SSE,148,0.0,0.0,94,0.00,,CLR,0.00,VWS V14.01,2013-08-27 09:20:00,
2013-08-27 04:21:00,73.2,71.4,30.05,SSE,148,0.0,0.0,94,0.00,,OVC025,0.00,VWS V14.01,2013-08-27 09:21:00,
2013-08-27 04:26:00,73.2,71.4,30.05,SSE,148,0.0,0.0,94,0.00,,OVC025,0.00,VWS V14.01,2013-08-27 09:26:00,
2013-08-27 04:30:00,73.4,71.6,30.05,SSE,148,0.0,0.0,94,0.00,,CLR,0.00,VWS V14.01,2013-08-27 09:30:00,
2013-08-27 04:31:00,73.2,71.4,30.05,SSE,148,0.0,0.0,94,0.00,,OVC025,0.00,VWS V14.01,2013-08-27 09:31:00,
2013-08-27 04:36:00,73.2,71.4,30.05,SSE,148,0.0,0.0,94,0.00,,OVC025,0.00,VWS V14.01,2013-08-27 09:36:00,
2013-08-27 04:40:00,73.2,71.4,30.05,SSE,148,0.0,0.0,94,0.00,,CLR,0.00,VWS V14.01,2013-08-27 09:40:00,
2013-08-27 04:41:00,73.4,71.9,30.05,SSE,148,0.0,0.0,95,0.00,,OVC031,0.00,VWS V14.01,2013-08-27 09:41:00,
2013-08-27 04:46:00,73.2,71.4,30.04,SSE,148,0.0,0.0,94,0.00,,OVC031,0.00,VWS V14.01,2013-08-27 09:46:00,
2013-08-27 04:50:00,73.2,71.4,30.05,SSE,148,0.0,0.0,94,0.00,,CLR,0.00,VWS V14.01,2013-08-27 09:50:00,
2013-08-27 04:51:00,73.2,71.4,30.04,SSE,148,0.0,0.0,94,0.00,,OVC029,0.00,VWS V14.01,2013-08-27 09:51:00,
2013-08-27 04:56:00,73.0,71.2,30.04,SSE,148,0.0,0.0,94,0.00,,OVC029,0.00,VWS V14.01,2013-08-27 09:56:00,
2013-08-27 05:00:00,73.2,71.4,30.04,SSE,148,0.0,0.0,94,0.00,,CLR,0.00,VWS V14.01,2013-08-27 10:00:00,
2013-08-27 05:01:00,73.0,71.2,30.04,SSE,148,0.0,0.0,94,0.00,,BKN030,0.00,VWS V14.01,2013-08-27 10:01:00,
2013-08-27 05:06:00,73.0,71.2,30.04,SSE,148,0.0,0.0,94,0.00,,BKN030,0.00,VWS V14.01,2013-08-27 10:06:00,
2013-08-27 05:10:00,73.0,71.2,30.04,SSE,148,0.0,0.0,94,0.00,,CLR,0.00,VWS V14.01,2013-08-27 10:10:00,
2013-08-27 05:11:00,72.8,71.0,30.04,SSE,148,0.0,0.0,94,0.00,,BKN030,0.00,VWS V14.01,2013-08-27 10:11:00,
2013-08-27 05:16:00,72.8,71.0,30.04,SSE,148,0.0,0.0,94,0.00,,BKN030,0.00,VWS V14.01,2013-08-27 10:16:00,
2013-08-27 05:20:00,73.0,71.2,30.04,SSE,148,0.0,0.0,94,0.00,,CLR,0.00,VWS V14.01,2013-08-27 10:20:00,
2013-08-27 05:21:00,72.8,71.0,30.04,SSE,148,0.0,0.0,94,0.00,,BKN030,0.00,VWS V14.01,2013-08-27 10:21:00,
2013-08-27 05:26:00,72.8,71.0,30.04,SSE,148,0.0,0.0,94,0.00,,BKN030,0.00,VWS V14.01,2013-08-27 10:26:00,
2013-08-27 05:30:00,72.8,71.0,30.04,SSE,148,0.0,0.0,94,0.00,,CLR,0.00,VWS V14.01,2013-08-27 10:30:00,
2013-08-27 05:31:00,72.7,70.9,30.04,SSE,148,0.0,0.0,94,0.00,,BKN030,0.00,VWS V14.01,2013-08-27 10:31:00,
2013-08-27 05:36:00,72.7,71.2,30.04,SSE,148,0.0,0.0,95,0.00,,BKN030,0.00,VWS V14.01,2013-08-27 10:36:00,
2013-08-27 05:40:00,72.8,71.0,30.04,SSE,148,0.0,0.0,94,0.00,,CLR,0.00,VWS V14.01,2013-08-27 10:40:00,
2013-08-27 05:41:00,72.7,70.9,30.04,SSE,148,0.0,0.0,94,0.00,,OVC021,0.00,VWS V14.01,2013-08-27 10:41:00,
2013-08-27 05:46:00,72.7,70.9,30.04,SSE,148,0.0,0.0,94,0.00,,OVC021,0.00,VWS V14.01,2013-08-27 10:46:00,
2013-08-27 05:50:00,72.7,71.2,30.04,SSE,148,0.0,0.0,95,0.00,,CLR,0.00,VWS V14.01,2013-08-27 10:50:00,
2013-08-27 05:51:00,72.7,70.9,30.04,SSE,148,0.0,0.0,94,0.00,,OVC021,0.00,VWS V14.01,2013-08-27 10:51:00,
2013-08-27 05:56:00,72.7,71.2,30.04,SSE,148,0.0,0.0,95,0.00,,OVC021,0.00,VWS V14.01,2013-08-27 10:56:00,
2013-08-27 06:00:00,72.7,70.9,30.04,SSE,148,0.0,0.0,94,0.00,,CLR,0.00,VWS V14.01,2013-08-27 11:00:00,
2013-08-27 06:01:00,72.5,70.7,30.04,SSE,148,0.0,0.0,94,0.00,,OVC021,0.00,VWS V14.01,2013-08-27 11:01:00,
2013-08-27 06:06:00,72.5,71.0,30.04,SSE,148,0.0,0.0,95,0.00,,OVC021,0.00,VWS V14.01,2013-08-27 11:06:00,
2013-08-27 06:10:00,72.7,70.9,30.04,SSE,148,0.0,0.0,94,0.00,,CLR,0.00,VWS V14.01,2013-08-27 11:10:00,
2013-08-27 06:11:00,72.7,71.2,30.04,SSE,148,0.0,0.0,95,0.00,,OVC021,0.00,VWS V14.01,2013-08-27 11:11:00,
2013-08-27 06:16:00,72.7,71.2,30.05,SSE,148,0.0,0.0,95,0.00,,OVC021,0.00,VWS V14.01,2013-08-27 11:16:00,
2013-08-27 06:20:00,72.5,71.0,30.04,SSE,148,0.0,0.0,95,0.00,,CLR,0.00,VWS V14.01,2013-08-27 11:20:00,
2013-08-27 06:21:00,72.7,71.2,30.05,SSE,148,0.0,0.0,95,0.00,,OVC021,0.00,VWS V14.01,2013-08-27 11:21:00,
2013-08-27 06:26:00,72.7,71.2,30.05,SSE,148,0.0,0.0,95,0.00,,OVC021,0.00,VWS V14.01,2013-08-27 11:26:00,
2013-08-27 06:30:00,72.7,71.2,30.05,SSE,148,0.0,0.0,95,0.00,,CLR,0.00,VWS V14.01,2013-08-27 11:30:00,
2013-08-27 06:31:00,72.8,71.3,30.06,SSE,148,0.0,0.0,95,0.00,,OVC021,0.00,VWS V14.01,2013-08-27 11:31:00,
2013-08-27 06:36:00,72.8,71.3,30.06,SSE,148,0.0,0.0,95,0.00,,OVC021,0.00,VWS V14.01,2013-08-27 11:36:00,
2013-08-27 06:40:00,72.7,71.2,30.05,SSE,148,0.0,0.0,95,0.00,,CLR,0.00,VWS V14.01,2013-08-27 11:40:00,
2013-08-27 06:41:00,72.8,71.3,30.06,SSE,148,0.0,0.0,95,0.00,,OVC021,0.00,VWS V14.01,2013-08-27 11:41:00,
2013-08-27 06:46:00,72.8,71.3,30.06,SSE,148,0.0,0.0,95,0.00,,OVC021,0.00,VWS V14.01,2013-08-27 11:46:00,
2013-08-27 06:50:00,72.8,71.3,30.06,SSE,148,0.0,0.0,95,0.00,,CLR,0.00,VWS V14.01,2013-08-27 11:50:00,
2013-08-27 06:51:00,72.8,71.3,30.06,SSE,148,0.0,0.0,95,0.00,,OVC045,0.00,VWS V14.01,2013-08-27 11:51:00,
2013-08-27 06:56:00,72.8,71.3,30.06,SSE,148,0.0,0.0,95,0.00,,OVC045,0.00,VWS V14.01,2013-08-27 11:56:00,
2013-08-27 07:00:00,72.8,71.3,30.06,SSE,148,0.0,0.0,95,0.00,,CLR,0.00,VWS V14.01,2013-08-27 12:00:00,
2013-08-27 07:01:00,72.8,71.3,30.06,SSE,148,0.0,0.0,95,0.00,,OVC025,0.00,VWS V14.01,2013-08-27 12:01:00,
2013-08-27 07:06:00,72.7,71.2,30.06,SSE,148,0.0,0.0,95,0.00,,OVC025,0.00,VWS V14.01,2013-08-27 12:06:00,
2013-08-27 07:10:00,72.8,71.3,30.06,SSE,148,0.0,0.0,95,0.00,,CLR,0.00,VWS V14.01,2013-08-27 12:10:00,
2013-08-27 07:11:00,72.7,71.2,30.06,SSE,148,0.0,0.0,95,0.00,,OVC025,0.00,VWS V14.01,2013-08-27 12:11:00,
2013-08-27 07:16:00,72.7,71.2,30.07,SSE,148,0.0,0.0,95,0.00,,OVC025,0.00,VWS V14.01,2013-08-27 12:16:00,
2013-08-27 07:20:00,72.7,71.2,30.06,SSE,148,0.0,0.0,95,0.00,,CLR,0.00,VWS V14.01,2013-08-27 12:20:00,
2013-08-27 07:21:00,72.7,71.2,30.07,SSE,148,0.0,0.0,95,0.00,,OVC025,0.00,VWS V14.01,2013-08-27 12:21:00,
2013-08-27 07:26:00,72.7,71.2,30.07,SSE,148,0.0,0.0,95,0.00,,OVC025,0.00,VWS V14.01,2013-08-27 12:26:00,
2013-08-27 07:30:00,72.7,71.2,30.07,SSE,148,0.0,0.0,95,0.00,,CLR,0.00,VWS V14.01,2013-08-27 12:30:00,
2013-08-27 07:31:00,72.7,71.2,30.07,SSE,148,0.0,0.0,95,0.00,,OVC025,0.00,VWS V14.01,2013-08-27 12:31:00,
2013-08-27 07:36:00,72.5,71.0,30.07,SSE,148,0.0,0.0,95,0.00,,OVC025,0.00,VWS V14.01,2013-08-27 12:36:00,
2013-08-27 07:40:00,72.7,71.2,30.07,SSE,148,0.0,0.0,95,0.00,,CLR,0.00,VWS V14.01,2013-08-27 12:40:00,
2013-08-27 07:41:00,72.7,71.2,30.07,SSE,148,0.0,0.0,95,0.00,,OVC025,0.00,VWS V14.01,2013-08-27 12:41:00,
2013-08-27 07:46:00,72.7,71.2,30.07,SSE,148,0.0,0.0,95,0.00,,OVC025,0.00,VWS V14.01,2013-08-27 12:46:00,
2013-08-27 07:50:00,72.5,71.0,30.07,SSE,148,0.0,0.0,95,0.00,,CLR,0.00,VWS V14.01,2013-08-27 12:50:00,
2013-08-27 07:51:00,72.7,71.2,30.07,SSE,148,0.0,0.0,95,0.00,,OVC025,0.00,VWS V14.01,2013-08-27 12:51:00,
2013-08-27 07:56:00,72.8,71.3,30.07,SSE,148,0.0,0.0,95,0.00,,OVC025,0.00,VWS V14.01,2013-08-27 12:56:00,
2013-08-27 08:00:00,72.7,71.2,30.07,SSE,148,0.0,0.0,95,0.00,,CLR,0.00,VWS V14.01,2013-08-27 13:00:00,
2013-08-27 08:01:00,72.8,71.3,30.08,SSE,148,0.0,0.0,95,0.00,,OVC016,0.00,VWS V14.01,2013-08-27 13:01:00,
2013-08-27 08:06:00,73.0,71.5,30.08,SSE,148,0.0,0.0,95,0.00,,OVC016,0.00,VWS V14.01,2013-08-27 13:06:00,
2013-08-27 08:10:00,72.8,71.3,30.07,SSE,148,0.0,0.0,95,0.00,,CLR,0.00,VWS V14.01,2013-08-27 13:10:00,
2013-08-27 08:11:00,73.0,71.5,30.08,SSE,148,0.0,0.0,95,0.00,,OVC016,0.00,VWS V14.01,2013-08-27 13:11:00,
2013-08-27 08:16:00,73.0,71.5,30.08,SSE,148,0.0,0.0,95,0.00,,OVC016,0.00,VWS V14.01,2013-08-27 13:16:00,
2013-08-27 08:20:00,73.0,71.5,30.08,SSE,148,0.0,0.0,95,0.00,,CLR,0.00,VWS V14.01,2013-08-27 13:20:00,
2013-08-27 08:21:00,73.2,71.7,30.08,SSE,148,0.0,0.0,95,0.00,,OVC016,0.00,VWS V14.01,2013-08-27 13:21:00,
2013-08-27 08:26:00,73.4,71.9,30.08,SSE,148,0.0,0.0,95,0.00,,OVC016,0.00,VWS V14.01,2013-08-27 13:26:00,
2013-08-27 08:30:00,73.2,71.7,30.08,SSE,148,0.0,0.0,95,0.00,,CLR,0.00,VWS V14.01,2013-08-27 13:30:00,
2013-08-27 08:31:00,73.4,71.9,30.09,SSE,148,0.0,0.0,95,0.00,,OVC014,0.00,VWS V14.01,2013-08-27 13:31:00,
2013-08-27 08:36:00,73.5,72.0,30.09,SSE,148,0.0,0.0,95,0.00,,OVC014,0.00,VWS V14.01,2013-08-27 13:36:00,
2013-08-27 08:40:00,73.4,71.9,30.08,SSE,148,0.0,0.0,95,0.00,,CLR,0.00,VWS V14.01,2013-08-27 13:40:00,
2013-08-27 08:41:00,73.5,72.0,30.09,SSE,148,0.0,0.0,95,0.00,,OVC014,0.00,VWS V14.01,2013-08-27 13:41:00,
2013-08-27 08:46:00,73.7,72.2,30.09,SSE,148,0.0,0.0,95,0.00,,OVC014,0.00,VWS V14.01,2013-08-27 13:46:00,
2013-08-27 08:50:00,73.5,72.0,30.09,SSE,148,0.0,0.0,95,0.00,,CLR,0.00,VWS V14.01,2013-08-27 13:50:00,
2013-08-27 08:51:00,73.9,72.4,30.09,SSE,148,0.0,0.0,95,0.00,,OVC014,0.00,VWS V14.01,2013-08-27 13:51:00,
2013-08-27 08:56:00,74.1,72.6,30.09,SSE,148,0.0,0.0,95,0.00,,OVC014,0.00,VWS V14.01,2013-08-27 13:56:00,
2013-08-27 09:00:00,73.7,72.2,30.09,SSE,148,0.0,0.0,95,0.00,,CLR,0.00,VWS V14.01,2013-08-27 14:00:00,
2013-08-27 09:01:00,74.1,72.6,30.09,SSE,148,0.0,0.0,95,0.00,,OVC006,0.00,VWS V14.01,2013-08-27 14:01:00,
2013-08-27 09:06:00,74.2,72.7,30.09,SSE,148,0.0,0.0,95,0.00,,OVC006,0.00,VWS V14.01,2013-08-27 14:06:00,
2013-08-27 09:10:00,74.1,72.6,30.09,SSE,148,0.0,0.0,95,0.00,,CLR,0.00,VWS V14.01,2013-08-27 14:10:00,
2013-08-27 09:11:00,74.6,73.1,30.09,SSE,148,0.0,0.0,95,0.00,,OVC006,0.00,VWS V14.01,2013-08-27 14:11:00,
2013-08-27 09:16:00,74.6,73.1,30.09,SSE,148,0.0,0.0,95,0.00,,OVC006,0.00,VWS V14.01,2013-08-27 14:16:00,
2013-08-27 09:20:00,74.4,72.9,30.09,SSE,148,0.0,0.0,95,0.00,,CLR,0.00,VWS V14.01,2013-08-27 14:20:00,
2013-08-27 09:21:00,74.8,73.3,30.09,SSE,147,0.0,0.0,95,0.00,,OVC006,0.00,VWS V14.01,2013-08-27 14:21:00,
2013-08-27 09:26:00,74.9,73.4,30.09,SSE,147,0.0,0.0,95,0.00,,OVC006,0.00,VWS V14.01,2013-08-27 14:26:00,
2013-08-27 09:30:00,74.6,73.1,30.09,SSE,148,0.0,0.0,95,0.00,,CLR,0.00,VWS V14.01,2013-08-27 14:30:00,
2013-08-27 09:31:00,75.1,73.3,30.09,SSE,147,0.0,0.0,94,0.00,,OVC006,0.00,VWS V14.01,2013-08-27 14:31:00,
2013-08-27 09:36:00,75.3,73.5,30.09,SSE,147,0.0,0.0,94,0.00,,OVC006,0.00,VWS V14.01,2013-08-27 14:36:00,
2013-08-27 09:40:00,74.9,73.4,30.09,SSE,147,0.0,0.0,95,0.00,,CLR,0.00,VWS V14.01,2013-08-27 14:40:00,
2013-08-27 09:41:00,75.5,73.7,30.09,SSE,147,0.0,0.0,94,0.00,,OVC006,0.00,VWS V14.01,2013-08-27 14:41:00,
2013-08-27 09:46:00,75.8,73.9,30.10,SSE,147,0.0,0.0,94,0.00,,OVC006,0.00,VWS V14.01,2013-08-27 14:46:00,
2013-08-27 09:50:00,75.3,73.5,30.09,SSE,147,0.0,0.0,94,0.00,,CLR,0.00,VWS V14.01,2013-08-27 14:50:00,
2013-08-27 09:51:00,76.0,74.2,30.10,SE,145,0.0,0.0,94,0.00,,OVC006,0.00,VWS V14.01,2013-08-27 14:51:00,
2013-08-27 09:56:00,76.0,74.2,30.10,SSE,156,0.0,0.0,94,0.00,,OVC006,0.00,VWS V14.01,2013-08-27 14:56:00,
2013-08-27 10:00:00,75.8,73.9,30.10,SSE,147,0.0,0.0,94,0.00,,CLR,0.00,VWS V14.01,2013-08-27 15:00:00,
2013-08-27 10:01:00,76.0,73.8,30.10,SSE,156,0.0,0.0,93,0.00,,BKN012,0.00,VWS V14.01,2013-08-27 15:01:00,
2013-08-27 10:06:00,76.2,74.0,30.10,SSE,155,0.0,0.0,93,0.00,,BKN012,0.00,VWS V14.01,2013-08-27 15:06:00,
2013-08-27 10:10:00,76.0,74.2,30.10,SSE,156,0.0,0.0,94,0.00,,CLR,0.00,VWS V14.01,2013-08-27 15:10:00,
2013-08-27 10:11:00,76.3,73.8,30.10,SSE,155,0.0,0.0,92,0.00,,BKN012,0.00,VWS V14.01,2013-08-27 15:11:00,
2013-08-27 10:16:00,76.7,73.9,30.10,SSE,155,0.0,0.0,91,0.00,,BKN012,0.00,VWS V14.01,2013-08-27 15:16:00,
2013-08-27 10:20:00,76.2,74.0,30.10,SSE,155,0.0,0.0,93,0.00,,CLR,0.00,VWS V14.01,2013-08-27 15:20:00,
2013-08-27 10:21:00,77.1,73.9,30.10,SSE,155,0.0,0.0,90,0.00,,BKN012,0.00,VWS V14.01,2013-08-27 15:21:00,
2013-08-27 10:26:00,77.8,74.0,30.10,SSE,155,0.0,0.0,88,0.00,,BKN012,0.00,VWS V14.01,2013-08-27 15:26:00,
2013-08-27 10:30:00,76.7,73.9,30.10,SSE,155,0.0,0.0,91,0.00,,CLR,0.00,VWS V14.01,2013-08-27 15:30:00,
2013-08-27 10:31:00,78.3,74.1,30.10,SSE,155,0.0,0.0,87,0.00,,BKN012,0.00,VWS V14.01,2013-08-27 15:31:00,
2013-08-27 10:36:00,78.7,73.5,30.10,SSE,156,0.0,0.0,84,0.00,,BKN012,0.00,VWS V14.01,2013-08-27 15:36:00,
2013-08-27 10:40:00,77.8,74.3,30.10,SSE,155,0.0,0.0,89,0.00,,CLR,0.00,VWS V14.01,2013-08-27 15:40:00,
2013-08-27 10:41:00,79.1,72.8,30.10,SSE,156,0.0,0.0,81,0.00,,BKN012,0.00,VWS V14.01,2013-08-27 15:41:00,
2013-08-27 10:46:00,79.3,72.2,30.10,SSE,156,0.0,0.0,79,0.00,,BKN012,0.00,VWS V14.01,2013-08-27 15:46:00,
2013-08-27 10:50:00,78.7,73.5,30.10,SSE,156,0.0,0.0,84,0.00,,CLR,0.00,VWS V14.01,2013-08-27 15:50:00,
2013-08-27 10:51:00,79.8,72.7,30.10,SSE,156,0.0,0.0,79,0.00,,BKN012,0.00,VWS V14.01,2013-08-27 15:51:00,
2013-08-27 10:56:00,80.2,73.5,30.10,SSE,156,0.0,0.0,80,0.00,,BKN012,0.00,VWS V14.01,2013-08-27 15:56:00,
2013-08-27 11:00:00,79.3,72.2,30.10,SSE,156,0.0,0.0,79,0.00,,CLR,0.00,VWS V14.01,2013-08-27 16:00:00,
2013-08-27 11:01:00,80.4,73.3,30.10,SSE,156,0.0,0.0,79,0.00,,OVC015,0.00,VWS V14.01,2013-08-27 16:01:00,
2013-08-27 11:06:00,80.7,73.2,30.10,SSE,156,0.0,0.0,78,0.00,,OVC015,0.00,VWS V14.01,2013-08-27 16:06:00,
2013-08-27 11:10:00,80.2,73.1,30.10,SSE,156,0.0,0.0,79,0.00,,CLR,0.00,VWS V14.01,2013-08-27 16:10:00,
2013-08-27 11:11:00,81.1,73.2,30.10,SSE,158,0.0,0.0,77,0.00,,BKN022,0.00,VWS V14.01,2013-08-27 16:11:00,
2013-08-27 11:16:00,81.3,73.4,30.10,SSE,158,0.0,0.0,77,0.00,,BKN022,0.00,VWS V14.01,2013-08-27 16:16:00,
2013-08-27 11:20:00,80.7,73.2,30.10,SSE,156,0.0,0.0,78,0.00,,CLR,0.00,VWS V14.01,2013-08-27 16:20:00,
2013-08-27 11:21:00,81.7,73.4,30.10,SSE,158,0.0,0.0,76,0.00,,BKN022,0.00,VWS V14.01,2013-08-27 16:21:00,
2013-08-27 11:26:00,81.9,73.6,30.10,SSE,158,0.0,0.0,76,0.00,,BKN022,0.00,VWS V14.01,2013-08-27 16:26:00,
2013-08-27 11:30:00,81.5,73.6,30.10,SSE,158,0.0,0.0,77,0.00,,CLR,0.00,VWS V14.01,2013-08-27 16:30:00,
2013-08-27 11:31:00,82.3,74.0,30.10,SE,144,0.0,0.0,76,0.00,,BKN022,0.00,VWS V14.01,2013-08-27 16:31:00,
2013-08-27 11:36:00,82.9,73.8,30.10,SE,144,0.0,0.0,74,0.00,,BKN022,0.00,VWS V14.01,2013-08-27 16:36:00,
2013-08-27 11:40:00,81.9,73.6,30.10,SSE,147,0.0,0.0,76,0.00,,CLR,0.00,VWS V14.01,2013-08-27 16:40:00,
2013-08-27 11:41:00,83.1,73.6,30.10,SE,144,0.0,0.0,73,0.00,,BKN022,0.00,VWS V14.01,2013-08-27 16:41:00,
2013-08-27 11:46:00,83.3,73.3,30.10,SE,144,0.0,0.0,72,0.00,,BKN022,0.00,VWS V14.01,2013-08-27 16:46:00,
2013-08-27 11:50:00,82.9,74.2,30.10,SE,144,0.0,0.0,75,0.00,,CLR,0.00,VWS V14.01,2013-08-27 16:50:00,
2013-08-27 11:51:00,83.3,73.3,30.10,SE,144,0.0,0.0,72,0.00,,BKN022,0.00,VWS V14.01,2013-08-27 16:51:00,
2013-08-27 11:56:00,83.8,72.6,30.10,SE,144,0.0,0.0,69,0.00,,BKN022,0.00,VWS V14.01,2013-08-27 16:56:00,
2013-08-27 12:00:00,83.3,73.3,30.10,SE,144,0.0,0.0,72,0.00,,CLR,0.00,VWS V14.01,2013-08-27 17:00:00,
2013-08-27 12:01:00,84.2,71.6,30.10,WSW,252,0.0,0.0,66,0.00,,BKN038,0.00,VWS V14.01,2013-08-27 17:01:00,
2013-08-27 12:06:00,84.2,73.4,30.10,NE,34,0.0,0.0,70,0.00,,BKN038,0.00,VWS V14.01,2013-08-27 17:06:00,
2013-08-27 12:10:00,83.8,72.6,30.10,SE,144,0.0,0.0,69,0.00,,CLR,0.00,VWS V14.01,2013-08-27 17:10:00,
2013-08-27 12:11:00,84.4,72.7,30.10,NNW,334,0.0,0.0,68,0.00,,BKN038,0.00,VWS V14.01,2013-08-27 17:11:00,
2013-08-27 12:16:00,84.2,71.6,30.10,NNW,348,0.0,0.0,66,0.00,,BKN038,0.00,VWS V14.01,2013-08-27 17:16:00,
2013-08-27 12:20:00,84.2,73.4,30.10,NE,34,0.0,0.0,70,0.00,,CLR,0.00,VWS V14.01,2013-08-27 17:20:00,
2013-08-27 12:21:00,84.0,71.0,30.10,NNW,348,0.0,0.0,65,0.00,,BKN044,0.00,VWS V14.01,2013-08-27 17:21:00,
2013-08-27 12:26:00,84.0,71.0,30.10,North,349,0.0,0.0,65,0.00,,BKN044,0.00,VWS V14.01,2013-08-27 17:26:00,
2013-08-27 12:30:00,84.2,71.6,30.10,NNW,348,0.0,0.0,66,0.00,,CLR,0.00,VWS V14.01,2013-08-27 17:30:00,
2013-08-27 12:31:00,84.2,70.7,30.10,NNW,327,0.0,0.0,64,0.00,,BKN044,0.00,VWS V14.01,2013-08-27 17:31:00,
2013-08-27 12:36:00,84.4,70.4,30.10,NW,316,0.0,0.0,63,0.00,,BKN044,0.00,VWS V14.01,2013-08-27 17:36:00,
2013-08-27 12:40:00,84.0,71.0,30.10,NNW,348,0.0,0.0,65,0.00,,CLR,0.00,VWS V14.01,2013-08-27 17:40:00,
2013-08-27 12:41:00,84.6,71.1,30.10,NW,316,0.0,0.0,64,0.00,,BKN044,0.00,VWS V14.01,2013-08-27 17:41:00,
2013-08-27 12:46:00,84.4,70.4,30.10,SW,221,0.0,0.0,63,0.00,,BKN044,0.00,VWS V14.01,2013-08-27 17:46:00,
2013-08-27 12:50:00,84.4,70.4,30.10,NW,316,0.0,0.0,63,0.00,,CLR,0.00,VWS V14.01,2013-08-27 17:50:00,
2013-08-27 12:51:00,84.4,70.9,30.10,WSW,246,0.0,0.0,64,0.00,,BKN044,0.00,VWS V14.01,2013-08-27 17:51:00,
2013-08-27 12:56:00,84.2,70.2,30.10,WSW,246,0.0,0.0,63,0.00,,BKN044,0.00,VWS V14.01,2013-08-27 17:56:00,
2013-08-27 13:00:00,84.4,70.4,30.10,SW,221,0.0,0.0,63,0.00,,CLR,0.00,VWS V14.01,2013-08-27 18:00:00,
2013-08-27 13:01:00,84.2,71.2,30.10,WSW,246,0.0,0.0,65,0.00,,BKN033,0.00,VWS V14.01,2013-08-27 18:01:00,
2013-08-27 13:06:00,84.4,70.0,30.10,WNW,288,0.0,0.0,62,0.00,,BKN033,0.00,VWS V14.01,2013-08-27 18:06:00,
2013-08-27 13:10:00,84.2,70.2,30.10,WSW,246,0.0,0.0,63,0.00,,CLR,0.00,VWS V14.01,2013-08-27 18:10:00,
2013-08-27 13:11:00,84.6,70.2,30.10,WNW,288,0.0,0.0,62,0.00,,BKN033,0.00,VWS V14.01,2013-08-27 18:11:00,
2013-08-27 13:16:00,84.6,70.2,30.09,WNW,288,0.0,0.0,62,0.00,,BKN033,0.00,VWS V14.01,2013-08-27 18:16:00,
2013-08-27 13:20:00,84.4,70.0,30.10,WNW,288,0.0,0.0,62,0.00,,CLR,0.00,VWS V14.01,2013-08-27 18:20:00,
2013-08-27 13:21:00,84.6,68.7,30.09,NNW,331,0.0,0.0,59,0.00,,BKN033,0.00,VWS V14.01,2013-08-27 18:21:00,
2013-08-27 13:26:00,84.6,69.7,30.09,NNW,331,0.0,0.0,61,0.00,,BKN033,0.00,VWS V14.01,2013-08-27 18:26:00,
2013-08-27 13:30:00,84.6,70.6,30.09,WNW,288,0.0,0.0,63,0.00,,CLR,0.00,VWS V14.01,2013-08-27 18:30:00,
2013-08-27 13:31:00,84.6,68.7,30.09,NNW,331,0.0,0.0,59,0.00,,BKN033,0.00,VWS V14.01,2013-08-27 18:31:00,
2013-08-27 13:36:00,85.0,69.1,30.09,NNW,331,0.0,0.0,59,0.00,,BKN033,0.00,VWS V14.01,2013-08-27 18:36:00,
2013-08-27 13:40:00,84.6,69.7,30.09,NNW,331,0.0,0.0,61,0.00,,CLR,0.00,VWS V14.01,2013-08-27 18:40:00,
2013-08-27 13:41:00,85.4,70.9,30.09,NNW,331,0.0,0.0,62,0.00,,BKN033,0.00,VWS V14.01,2013-08-27 18:41:00,
2013-08-27 13:46:00,85.6,70.1,30.09,NNW,331,0.0,0.0,60,0.00,,BKN033,0.00,VWS V14.01,2013-08-27 18:46:00,
2013-08-27 13:50:00,85.0,69.1,30.09,NNW,331,0.0,0.0,59,0.00,,CLR,0.00,VWS V14.01,2013-08-27 18:50:00,
2013-08-27 13:51:00,85.8,69.8,30.09,NNW,332,0.0,0.0,59,0.00,,BKN033,0.00,VWS V14.01,2013-08-27 18:51:00,
2013-08-27 13:56:00,86.0,70.5,30.09,NNW,332,0.0,0.0,60,0.00,,BKN033,0.00,VWS V14.01,2013-08-27 18:56:00,
2013-08-27 14:00:00,85.6,69.6,30.09,NNW,331,0.0,0.0,59,0.00,,CLR,0.00,VWS V14.01,2013-08-27 19:00:00,
2013-08-27 14:01:00,86.0,70.0,30.08,NNW,332,0.0,0.0,59,0.00,,SCT030,0.00,VWS V14.01,2013-08-27 19:01:00,
2013-08-27 14:06:00,86.5,69.0,30.08,NNW,332,0.0,0.0,56,0.00,,SCT030,0.00,VWS V14.01,2013-08-27 19:06:00,
2013-08-27 14:10:00,86.0,70.5,30.09,NNW,332,0.0,0.0,60,0.00,,CLR,0.00,VWS V14.01,2013-08-27 19:10:00,
2013-08-27 14:11:00,86.7,68.6,30.08,NNW,332,0.0,0.0,55,0.00,,SCT030,0.00,VWS V14.01,2013-08-27 19:11:00,
2013-08-27 14:16:00,86.9,70.4,30.07,NNW,332,0.0,0.0,58,0.00,,SCT030,0.00,VWS V14.01,2013-08-27 19:16:00,
2013-08-27 14:20:00,86.5,69.0,30.08,NNW,332,0.0,0.0,56,0.00,,CLR,0.00,VWS V14.01,2013-08-27 19:20:00,
2013-08-27 14:21:00,86.9,69.3,30.07,WNW,297,0.0,0.0,56,0.00,,SCT030,0.00,VWS V14.01,2013-08-27 19:21:00,
2013-08-27 14:26:00,86.9,68.8,30.07,WNW,297,0.0,0.0,55,0.00,,SCT030,0.00,VWS V14.01,2013-08-27 19:26:00,
2013-08-27 14:30:00,86.9,70.4,30.07,WNW,297,0.0,0.0,58,0.00,,CLR,0.00,VWS V14.01,2013-08-27 19:30:00,
2013-08-27 14:31:00,86.9,69.8,30.06,WNW,297,0.0,0.0,57,0.00,,SCT030,0.00,VWS V14.01,2013-08-27 19:31:00,
2013-08-27 14:36:00,87.1,69.5,30.06,WNW,297,0.0,0.0,56,0.00,,SCT030,0.00,VWS V14.01,2013-08-27 19:36:00,
2013-08-27 14:40:00,86.9,69.8,30.07,WNW,297,0.0,0.0,57,0.00,,CLR,0.00,VWS V14.01,2013-08-27 19:40:00,
2013-08-27 14:41:00,87.3,69.7,30.06,WNW,297,0.0,0.0,56,0.00,,SCT030,0.00,VWS V14.01,2013-08-27 19:41:00,
2013-08-27 14:46:00,87.3,69.7,30.06,WNW,297,0.0,0.0,56,0.00,,SCT030,0.00,VWS V14.01,2013-08-27 19:46:00,
2013-08-27 14:50:00,87.1,69.5,30.06,WNW,297,0.0,0.0,56,0.00,,CLR,0.00,VWS V14.01,2013-08-27 19:50:00,
2013-08-27 14:51:00,87.5,70.9,30.06,WNW,297,0.0,0.0,58,0.00,,SCT030,0.00,VWS V14.01,2013-08-27 19:51:00,
2013-08-27 14:56:00,87.5,70.4,30.06,WNW,300,0.0,0.0,57,0.00,,SCT030,0.00,VWS V14.01,2013-08-27 19:56:00,
2013-08-27 15:00:00,87.5,69.9,30.06,WNW,297,0.0,0.0,56,0.00,,CLR,0.00,VWS V14.01,2013-08-27 20:00:00,
2013-08-27 15:01:00,87.5,69.9,30.06,NW,308,0.0,0.0,56,0.00,,SCT030,0.00,VWS V14.01,2013-08-27 20:01:00,
2013-08-27 15:06:00,87.1,69.5,30.06,NW,310,0.0,0.0,56,0.00,,SCT030,0.00,VWS V14.01,2013-08-27 20:06:00,
2013-08-27 15:10:00,87.5,69.9,30.06,WNW,300,0.0,0.0,56,0.00,,CLR,0.00,VWS V14.01,2013-08-27 20:10:00,
2013-08-27 15:11:00,87.1,70.0,30.06,NW,310,0.0,0.0,57,0.00,,SCT030,0.00,VWS V14.01,2013-08-27 20:11:00,
2013-08-27 15:16:00,87.1,70.5,30.06,NW,310,0.0,0.0,58,0.00,,SCT030,0.00,VWS V14.01,2013-08-27 20:16:00,
2013-08-27 15:20:00,87.1,69.5,30.06,NW,310,0.0,0.0,56,0.00,,CLR,0.00,VWS V14.01,2013-08-27 20:20:00,
2013-08-27 15:21:00,87.1,70.0,30.06,NW,310,0.0,0.0,57,0.00,,SCT030,0.00,VWS V14.01,2013-08-27 20:21:00,
2013-08-27 15:26:00,87.1,69.5,30.06,NW,310,0.0,0.0,56,0.00,,SCT030,0.00,VWS V14.01,2013-08-27 20:26:00,
2013-08-27 15:30:00,87.1,70.5,30.06,NW,310,0.0,0.0,58,0.00,,CLR,0.00,VWS V14.01,2013-08-27 20:30:00,
2013-08-27 15:31:00,87.1,70.5,30.06,NW,310,0.0,0.0,58,0.00,,SCT030,0.00,VWS V14.01,2013-08-27 20:31:00,
2013-08-27 15:36:00,87.1,71.0,30.06,NW,310,0.0,0.0,59,0.00,,SCT030,0.00,VWS V14.01,2013-08-27 20:36:00,
2013-08-27 15:40:00,87.1,70.0,30.06,NW,310,0.0,0.0,57,0.00,,CLR,0.00,VWS V14.01,2013-08-27 20:40:00,
2013-08-27 15:41:00,86.9,69.8,30.06,NW,310,0.0,0.0,57,0.00,,SCT030,0.00,VWS V14.01,2013-08-27 20:41:00,
2013-08-27 15:46:00,86.9,70.9,30.04,NW,310,0.0,0.0,59,0.00,,SCT030,0.00,VWS V14.01,2013-08-27 20:46:00,
2013-08-27 15:50:00,87.1,70.0,30.06,NW,310,0.0,0.0,57,0.00,,CLR,0.00,VWS V14.01,2013-08-27 20:50:00,
2013-08-27 15:51:00,86.7,69.7,30.04,NW,323,0.0,0.0,57,0.00,,SCT030,0.00,VWS V14.01,2013-08-27 20:51:00,
2013-08-27 15:56:00,86.7,69.1,30.04,NW,323,0.0,0.0,56,0.00,,SCT030,0.00,VWS V14.01,2013-08-27 20:56:00,
2013-08-27 16:00:00,86.9,70.9,30.04,NW,310,0.0,0.0,59,0.00,,CLR,0.00,VWS V14.01,2013-08-27 21:00:00,
2013-08-27 16:01:00,86.9,69.8,30.04,NW,323,0.0,0.0,57,0.00,,SCT040,0.00,VWS V14.01,2013-08-27 21:01:00,
2013-08-27 16:06:00,86.9,69.8,30.04,NW,323,0.0,0.0,57,0.00,,SCT040,0.00,VWS V14.01,2013-08-27 21:06:00,
2013-08-27 16:10:00,86.7,70.2,30.04,NW,323,0.0,0.0,58,0.00,,CLR,0.00,VWS V14.01,2013-08-27 21:10:00,
2013-08-27 16:11:00,86.9,69.8,30.04,NW,323,0.0,0.0,57,0.00,,SCT040,0.00,VWS V14.01,2013-08-27 21:11:00,
2013-08-27 16:16:00,86.9,68.8,30.05,NW,323,0.0,0.0,55,0.00,,SCT040,0.00,VWS V14.01,2013-08-27 21:16:00,
2013-08-27 16:20:00,86.9,69.8,30.04,NW,323,0.0,0.0,57,0.00,,CLR,0.00,VWS V14.01,2013-08-27 21:20:00,
2013-08-27 16:21:00,86.7,69.1,30.05,NW,323,0.0,0.0,56,0.00,,SCT040,0.00,VWS V14.01,2013-08-27 21:21:00,
2013-08-27 16:26:00,86.5,67.9,30.05,NW,323,0.0,0.0,54,0.00,,SCT040,0.00,VWS V14.01,2013-08-27 21:26:00,
2013-08-27 16:30:00,86.9,68.8,30.05,NW,323,0.0,0.0,55,0.00,,CLR,0.00,VWS V14.01,2013-08-27 21:30:00,
2013-08-27 16:31:00,86.5,69.0,30.05,NW,323,0.0,0.0,56,0.00,,SCT040,0.00,VWS V14.01,2013-08-27 21:31:00,
2013-08-27 16:36:00,86.5,68.4,30.05,NW,323,0.0,0.0,55,0.00,,SCT040,0.00,VWS V14.01,2013-08-27 21:36:00,
2013-08-27 16:40:00,86.5,67.9,30.05,NW,323,0.0,0.0,54,0.00,,CLR,0.00,VWS V14.01,2013-08-27 21:40:00,
2013-08-27 16:41:00,86.2,69.2,30.05,NW,323,0.0,0.0,57,0.00,,SCT040,0.00,VWS V14.01,2013-08-27 21:41:00,
2013-08-27 16:46:00,86.2,68.2,30.04,NW,323,0.0,0.0,55,0.00,,SCT040,0.00,VWS V14.01,2013-08-27 21:46:00,
2013-08-27 16:50:00,86.5,68.4,30.05,NW,323,0.0,0.0,55,0.00,,CLR,0.00,VWS V14.01,2013-08-27 21:50:00,
2013-08-27 16:51:00,86.0,69.0,30.04,NW,323,0.0,0.0,57,0.00,,SCT040,0.00,VWS V14.01,2013-08-27 21:51:00,
2013-08-27 16:56:00,85.8,67.8,30.04,NW,323,0.0,0.0,55,0.00,,SCT040,0.00,VWS V14.01,2013-08-27 21:56:00,
2013-08-27 17:00:00,86.2,68.2,30.04,NW,323,0.0,0.0,55,0.00,,CLR,0.00,VWS V14.01,2013-08-27 22:00:00,
2013-08-27 17:01:00,85.8,68.3,30.04,NW,323,0.0,0.0,56,0.00,,SCT040,0.00,VWS V14.01,2013-08-27 22:01:00,
2013-08-27 17:06:00,85.8,68.3,30.04,NW,323,0.0,0.0,56,0.00,,SCT040,0.00,VWS V14.01,2013-08-27 22:06:00,
2013-08-27 17:10:00,85.8,67.8,30.04,NW,323,0.0,0.0,55,0.00,,CLR,0.00,VWS V14.01,2013-08-27 22:10:00,
2013-08-27 17:11:00,85.8,68.3,30.04,NW,323,0.0,0.0,56,0.00,,SCT040,0.00,VWS V14.01,2013-08-27 22:11:00,
2013-08-27 17:16:00,85.8,69.8,30.04,NW,323,0.0,0.0,59,0.00,,SCT040,0.00,VWS V14.01,2013-08-27 22:16:00,
2013-08-27 17:20:00,85.8,68.3,30.04,NW,323,0.0,0.0,56,0.00,,CLR,0.00,VWS V14.01,2013-08-27 22:20:00,
2013-08-27 17:21:00,85.8,69.3,30.04,NW,323,0.0,0.0,58,0.00,,SCT040,0.00,VWS V14.01,2013-08-27 22:21:00,
2013-08-27 17:26:00,85.8,69.3,30.04,NW,323,0.0,0.0,58,0.00,,SCT040,0.00,VWS V14.01,2013-08-27 22:26:00,
2013-08-27 17:30:00,85.8,69.8,30.04,NW,323,0.0,0.0,59,0.00,,CLR,0.00,VWS V14.01,2013-08-27 22:30:00,
2013-08-27 17:31:00,85.6,68.6,30.03,NW,323,0.0,0.0,57,0.00,,SCT040,0.00,VWS V14.01,2013-08-27 22:31:00,
2013-08-27 17:36:00,85.8,69.3,30.03,NW,323,0.0,0.0,58,0.00,,SCT040,0.00,VWS V14.01,2013-08-27 22:36:00,
2013-08-27 17:40:00,85.8,69.3,30.04,NW,323,0.0,0.0,58,0.00,,CLR,0.00,VWS V14.01,2013-08-27 22:40:00,
2013-08-27 17:41:00,85.8,69.3,30.03,NW,323,0.0,0.0,58,0.00,,SCT040,0.00,VWS V14.01,2013-08-27 22:41:00,
2013-08-27 17:46:00,86.0,70.5,30.03,NW,323,0.0,0.0,60,0.00,,SCT040,0.00,VWS V14.01,2013-08-27 22:46:00,
2013-08-27 17:50:00,85.8,69.3,30.03,NW,323,0.0,0.0,58,0.00,,CLR,0.00,VWS V14.01,2013-08-27 22:50:00,
2013-08-27 17:51:00,86.0,69.0,30.03,NW,323,0.0,0.0,57,0.00,,SCT040,0.00,VWS V14.01,2013-08-27 22:51:00,
2013-08-27 17:56:00,86.0,70.0,30.03,NW,323,0.0,0.0,59,0.00,,SCT040,0.00,VWS V14.01,2013-08-27 22:56:00,
2013-08-27 18:00:00,86.0,70.5,30.03,NW,323,0.0,0.0,60,0.00,,CLR,0.00,VWS V14.01,2013-08-27 23:00:00,
2013-08-27 18:01:00,86.0,70.0,30.03,NW,323,0.0,0.0,59,0.00,,FEW050,0.00,VWS V14.01,2013-08-27 23:01:00,
2013-08-27 18:06:00,86.0,70.0,30.03,NW,323,0.0,0.0,59,0.00,,FEW050,0.00,VWS V14.01,2013-08-27 23:06:00,
2013-08-27 18:10:00,86.0,70.0,30.03,NW,323,0.0,0.0,59,0.00,,CLR,0.00,VWS V14.01,2013-08-27 23:10:00,
2013-08-27 18:11:00,85.8,69.3,30.03,NW,323,0.0,0.0,58,0.00,,FEW050,0.00,VWS V14.01,2013-08-27 23:11:00,
2013-08-27 18:16:00,85.8,70.3,30.02,NW,323,0.0,0.0,60,0.00,,FEW050,0.00,VWS V14.01,2013-08-27 23:16:00,
2013-08-27 18:20:00,86.0,70.0,30.03,NW,323,0.0,0.0,59,0.00,,CLR,0.00,VWS V14.01,2013-08-27 23:20:00,
2013-08-27 18:21:00,85.8,70.3,30.02,NW,323,0.0,0.0,60,0.00,,FEW050,0.00,VWS V14.01,2013-08-27 23:21:00,
2013-08-27 18:26:00,85.6,70.1,30.02,NW,323,0.0,0.0,60,0.00,,FEW050,0.00,VWS V14.01,2013-08-27 23:26:00,
2013-08-27 18:30:00,85.8,70.3,30.02,NW,323,0.0,0.0,60,0.00,,CLR,0.00,VWS V14.01,2013-08-27 23:30:00,
2013-08-27 18:31:00,85.4,70.4,30.02,NW,323,0.0,0.0,61,0.00,,FEW050,0.00,VWS V14.01,2013-08-27 23:31:00,
2013-08-27 18:36:00,85.2,69.8,30.02,NW,323,0.0,0.0,60,0.00,,FEW050,0.00,VWS V14.01,2013-08-27 23:36:00,
2013-08-27 18:40:00,85.6,70.1,30.02,NW,323,0.0,0.0,60,0.00,,CLR,0.00,VWS V14.01,2013-08-27 23:40:00,
2013-08-27 18:41:00,85.0,69.6,30.02,NW,323,0.0,0.0,60,0.00,,FEW050,0.00,VWS V14.01,2013-08-27 23:41:00,
2013-08-27 18:46:00,84.8,69.9,30.01,NW,323,0.0,0.0,61,0.00,,FEW050,0.00,VWS V14.01,2013-08-27 23:46:00,
2013-08-27 18:50:00,85.2,69.8,30.02,NW,323,0.0,0.0,60,0.00,,CLR,0.00,VWS V14.01,2013-08-27 23:50:00,
2013-08-27 18:51:00,84.8,70.3,30.01,NW,323,0.0,0.0,62,0.00,,FEW050,0.00,VWS V14.01,2013-08-27 23:51:00,
2013-08-27 18:56:00,84.6,71.1,30.01,NW,323,0.0,0.0,64,0.00,,FEW050,0.00,VWS V14.01,2013-08-27 23:56:00,
2013-08-27 19:00:00,84.8,69.9,30.01,NW,323,0.0,0.0,61,0.00,,CLR,0.00,VWS V14.01,2013-08-28 00:00:00,
2013-08-27 19:01:00,84.4,70.9,30.01,NW,323,0.0,0.0,64,0.00,,CLR,0.00,VWS V14.01,2013-08-28 00:01:00,
2013-08-27 19:06:00,84.2,71.2,30.01,NW,323,0.0,0.0,65,0.00,,CLR,0.00,VWS V14.01,2013-08-28 00:06:00,
2013-08-27 19:10:00,84.6,71.1,30.01,NW,323,0.0,0.0,64,0.00,,CLR,0.00,VWS V14.01,2013-08-28 00:10:00,
2013-08-27 19:11:00,83.8,70.8,30.01,NW,323,0.0,0.0,65,0.00,,CLR,0.00,VWS V14.01,2013-08-28 00:11:00,
2013-08-27 19:16:00,83.6,71.1,30.01,NW,323,0.0,0.0,66,0.00,,CLR,0.00,VWS V14.01,2013-08-28 00:16:00,
2013-08-27 19:20:00,84.2,70.7,30.01,NW,323,0.0,0.0,64,0.00,,CLR,0.00,VWS V14.01,2013-08-28 00:20:00,
2013-08-27 19:21:00,83.5,70.9,30.01,NW,323,0.0,0.0,66,0.00,,CLR,0.00,VWS V14.01,2013-08-28 00:21:00,
2013-08-27 19:26:00,83.3,71.2,30.01,NW,323,0.0,0.0,67,0.00,,CLR,0.00,VWS V14.01,2013-08-28 00:26:00,
2013-08-27 19:30:00,83.6,71.1,30.01,NW,323,0.0,0.0,66,0.00,,CLR,0.00,VWS V14.01,2013-08-28 00:30:00,
2013-08-27 19:31:00,82.9,70.8,30.01,NW,323,0.0,0.0,67,0.00,,CLR,0.00,VWS V14.01,2013-08-28 00:31:00,
2013-08-27 19:36:00,82.7,71.1,30.01,NW,323,0.0,0.0,68,0.00,,CLR,0.00,VWS V14.01,2013-08-28 00:36:00,
2013-08-27 19:40:00,83.3,71.2,30.01,NW,323,0.0,0.0,67,0.00,,CLR,0.00,VWS V14.01,2013-08-28 00:40:00,
2013-08-27 19:41:00,82.3,71.1,30.01,NW,323,0.0,0.0,69,0.00,,CLR,0.00,VWS V14.01,2013-08-28 00:41:00,
2013-08-27 19:46:00,82.1,70.9,30.02,NW,323,0.0,0.0,69,0.00,,CLR,0.00,VWS V14.01,2013-08-28 00:46:00,
2013-08-27 19:50:00,82.7,71.1,30.01,NW,323,0.0,0.0,68,0.00,,CLR,0.00,VWS V14.01,2013-08-28 00:50:00,
2013-08-27 19:51:00,81.9,70.7,30.02,NW,323,0.0,0.0,69,0.00,,CLR,0.00,VWS V14.01,2013-08-28 00:51:00,
2013-08-27 19:56:00,81.7,71.0,30.02,NW,323,0.0,0.0,70,0.00,,CLR,0.00,VWS V14.01,2013-08-28 00:56:00,
2013-08-27 20:00:00,82.1,70.9,30.02,NW,323,0.0,0.0,69,0.00,,CLR,0.00,VWS V14.01,2013-08-28 01:00:00,
2013-08-27 20:01:00,81.3,70.6,30.02,NW,323,0.0,0.0,70,0.00,,CLR,0.00,VWS V14.01,2013-08-28 01:01:00,
2013-08-27 20:06:00,81.1,70.8,30.02,NW,323,0.0,0.0,71,0.00,,CLR,0.00,VWS V14.01,2013-08-28 01:06:00,
2013-08-27 20:10:00,81.7,71.0,30.02,NW,323,0.0,0.0,70,0.00,,CLR,0.00,VWS V14.01,2013-08-28 01:10:00,
2013-08-27 20:11:00,80.9,71.0,30.02,NW,323,0.0,0.0,72,0.00,,CLR,0.00,VWS V14.01,2013-08-28 01:11:00,
2013-08-27 20:16:00,80.6,70.8,30.02,NW,323,0.0,0.0,72,0.00,,CLR,0.00,VWS V14.01,2013-08-28 01:16:00,
2013-08-27 20:20:00,81.1,70.8,30.02,NW,323,0.0,0.0,71,0.00,,CLR,0.00,VWS V14.01,2013-08-28 01:20:00,
2013-08-27 20:21:00,80.4,70.6,30.02,NW,323,0.0,0.0,72,0.00,,CLR,0.00,VWS V14.01,2013-08-28 01:21:00,
2013-08-27 20:26:00,80.2,70.8,30.02,NW,323,0.0,0.0,73,0.00,,CLR,0.00,VWS V14.01,2013-08-28 01:26:00,
2013-08-27 20:30:00,80.6,70.8,30.02,NW,323,0.0,0.0,72,0.00,,CLR,0.00,VWS V14.01,2013-08-28 01:30:00,
2013-08-27 20:31:00,80.0,70.6,30.02,NW,323,0.0,0.0,73,0.00,,CLR,0.00,VWS V14.01,2013-08-28 01:31:00,
2013-08-27 20:36:00,79.8,70.8,30.02,NW,323,0.0,0.0,74,0.00,,CLR,0.00,VWS V14.01,2013-08-28 01:36:00,
2013-08-27 20:40:00,80.2,70.8,30.02,NW,323,0.0,0.0,73,0.00,,CLR,0.00,VWS V14.01,2013-08-28 01:40:00,
2013-08-27 20:41:00,79.6,70.6,30.02,NW,323,0.0,0.0,74,0.00,,CLR,0.00,VWS V14.01,2013-08-28 01:41:00,
2013-08-27 20:46:00,79.4,70.8,30.02,NW,323,0.0,0.0,75,0.00,,CLR,0.00,VWS V14.01,2013-08-28 01:46:00,
2013-08-27 20:50:00,79.8,70.8,30.02,NW,323,0.0,0.0,74,0.00,,CLR,0.00,VWS V14.01,2013-08-28 01:50:00,
2013-08-27 20:51:00,79.3,70.7,30.02,NW,323,0.0,0.0,75,0.00,,CLR,0.00,VWS V14.01,2013-08-28 01:51:00,
2013-08-27 20:56:00,79.1,70.9,30.02,NW,323,0.0,0.0,76,0.00,,CLR,0.00,VWS V14.01,2013-08-28 01:56:00,
2013-08-27 21:00:00,79.4,70.8,30.02,NW,323,0.0,0.0,75,0.00,,CLR,0.00,VWS V14.01,2013-08-28 02:00:00,
2013-08-27 21:01:00,78.9,70.7,30.02,NW,323,0.0,0.0,76,0.00,,CLR,0.00,VWS V14.01,2013-08-28 02:01:00,
2013-08-27 21:06:00,78.9,71.1,30.02,NW,323,0.0,0.0,77,0.00,,CLR,0.00,VWS V14.01,2013-08-28 02:06:00,
2013-08-27 21:10:00,79.1,70.9,30.02,NW,323,0.0,0.0,76,0.00,,CLR,0.00,VWS V14.01,2013-08-28 02:10:00,
2013-08-27 21:11:00,78.7,70.9,30.02,NW,323,0.0,0.0,77,0.00,,CLR,0.00,VWS V14.01,2013-08-28 02:11:00,
2013-08-27 21:16:00,78.5,71.1,30.03,NW,323,0.0,0.0,78,0.00,,CLR,0.00,VWS V14.01,2013-08-28 02:16:00,
2013-08-27 21:20:00,78.9,71.1,30.02,NW,323,0.0,0.0,77,0.00,,CLR,0.00,VWS V14.01,2013-08-28 02:20:00,
2013-08-27 21:21:00,78.3,70.9,30.03,NW,323,0.0,0.0,78,0.00,,CLR,0.00,VWS V14.01,2013-08-28 02:21:00,
2013-08-27 21:26:00,78.1,71.1,30.03,NW,323,0.0,0.0,79,0.00,,CLR,0.00,VWS V14.01,2013-08-28 02:26:00,
2013-08-27 21:30:00,78.5,71.1,30.03,NW,323,0.0,0.0,78,0.00,,CLR,0.00,VWS V14.01,2013-08-28 02:30:00,
2013-08-27 21:31:00,78.1,71.1,30.03,NW,323,0.0,0.0,79,0.00,,CLR,0.00,VWS V14.01,2013-08-28 02:31:00,
2013-08-27 21:36:00,78.0,71.3,30.03,NW,323,0.0,0.0,80,0.00,,CLR,0.00,VWS V14.01,2013-08-28 02:36:00,
2013-08-27 21:40:00,78.1,71.1,30.03,NW,323,0.0,0.0,79,0.00,,CLR,0.00,VWS V14.01,2013-08-28 02:40:00,
2013-08-27 21:41:00,77.8,71.1,30.03,NW,323,0.0,0.0,80,0.00,,CLR,0.00,VWS V14.01,2013-08-28 02:41:00,
2013-08-27 21:46:00,77.6,71.3,30.03,NW,323,0.0,0.0,81,0.00,,CLR,0.00,VWS V14.01,2013-08-28 02:46:00,
2013-08-27 21:50:00,78.0,71.3,30.03,NW,323,0.0,0.0,80,0.00,,CLR,0.00,VWS V14.01,2013-08-28 02:50:00,
2013-08-27 21:51:00,77.4,71.1,30.03,NW,323,0.0,0.0,81,0.00,,CLR,0.00,VWS V14.01,2013-08-28 02:51:00,
2013-08-27 21:56:00,77.4,71.1,30.03,NW,323,0.0,0.0,81,0.00,,CLR,0.00,VWS V14.01,2013-08-28 02:56:00,
2013-08-27 22:00:00,77.6,71.3,30.03,NW,323,0.0,0.0,81,0.00,,CLR,0.00,VWS V14.01,2013-08-28 03:00:00,
2013-08-27 22:01:00,77.2,71.3,30.04,NW,323,0.0,0.0,82,0.00,,CLR,0.00,VWS V14.01,2013-08-28 03:01:00,
2013-08-27 22:06:00,77.1,71.2,30.04,NW,323,0.0,0.0,82,0.00,,CLR,0.00,VWS V14.01,2013-08-28 03:06:00,
2013-08-27 22:10:00,77.4,71.1,30.03,NW,323,0.0,0.0,81,0.00,,CLR,0.00,VWS V14.01,2013-08-28 03:10:00,
2013-08-27 22:11:00,76.9,71.3,30.04,NW,323,0.0,0.0,83,0.00,,CLR,0.00,VWS V14.01,2013-08-28 03:11:00,
2013-08-27 22:16:00,76.7,71.2,30.04,NW,323,0.0,0.0,83,0.00,,CLR,0.00,VWS V14.01,2013-08-28 03:16:00,
2013-08-27 22:20:00,77.1,71.2,30.04,NW,323,0.0,0.0,82,0.00,,CLR,0.00,VWS V14.01,2013-08-28 03:20:00,
2013-08-27 22:21:00,76.5,71.3,30.04,NW,323,0.0,0.0,84,0.00,,CLR,0.00,VWS V14.01,2013-08-28 03:21:00,
2013-08-27 22:26:00,76.2,71.0,30.04,NW,323,0.0,0.0,84,0.00,,CLR,0.00,VWS V14.01,2013-08-28 03:26:00,
2013-08-27 22:30:00,76.7,71.2,30.04,NW,323,0.0,0.0,83,0.00,,CLR,0.00,VWS V14.01,2013-08-28 03:30:00,
2013-08-27 22:31:00,76.0,71.2,30.04,NW,323,0.0,0.0,85,0.00,,CLR,0.00,VWS V14.01,2013-08-28 03:31:00,
2013-08-27 22:36:00,75.8,71.3,30.04,NW,323,0.0,0.0,86,0.00,,CLR,0.00,VWS V14.01,2013-08-28 03:36:00,
2013-08-27 22:40:00,76.2,71.0,30.04,NW,323,0.0,0.0,84,0.00,,CLR,0.00,VWS V14.01,2013-08-28 03:40:00,
2013-08-27 22:41:00,75.6,71.1,30.04,NW,323,0.0,0.0,86,0.00,,CLR,0.00,VWS V14.01,2013-08-28 03:41:00,
2013-08-27 22:46:00,75.5,71.0,30.04,NW,323,0.0,0.0,86,0.00,,CLR,0.00,VWS V14.01,2013-08-28 03:46:00,
2013-08-27 22:50:00,75.8,71.3,30.04,NW,323,0.0,0.0,86,0.00,,CLR,0.00,VWS V14.01,2013-08-28 03:50:00,
2013-08-27 22:51:00,75.3,71.2,30.04,NW,323,0.0,0.0,87,0.00,,CLR,0.00,VWS V14.01,2013-08-28 03:51:00,
2013-08-27 22:56:00,75.1,71.0,30.04,NW,323,0.0,0.0,87,0.00,,CLR,0.00,VWS V14.01,2013-08-28 03:56:00,
2013-08-27 23:00:00,75.5,71.0,30.04,NW,323,0.0,0.0,86,0.00,,CLR,0.00,VWS V14.01,2013-08-28 04:00:00,
2013-08-27 23:01:00,74.9,70.8,30.04,NW,323,0.0,0.0,87,0.00,,CLR,0.00,VWS V14.01,2013-08-28 04:01:00,
2013-08-27 23:02:00,74.9,70.8,30.04,NW,323,0.0,0.0,87,0.00,,CLR,0.00,VWS V14.01,2013-08-28 04:02:00,
2013-08-27 23:07:00,74.8,70.7,30.04,NW,323,0.0,0.0,87,0.00,,CLR,0.00,VWS V14.01,2013-08-28 04:07:00,
2013-08-27 23:10:00,75.1,71.0,30.04,NW,323,0.0,0.0,87,0.00,,CLR,0.00,VWS V14.01,2013-08-28 04:10:00,
2013-08-27 23:12:00,74.6,70.5,30.04,NW,323,0.0,0.0,87,0.00,,CLR,0.00,VWS V14.01,2013-08-28 04:12:00,
2013-08-27 23:17:00,74.6,70.8,30.04,NW,323,0.0,0.0,88,0.00,,CLR,0.00,VWS V14.01,2013-08-28 04:17:00,
2013-08-27 23:20:00,74.8,70.7,30.04,NW,323,0.0,0.0,87,0.00,,CLR,0.00,VWS V14.01,2013-08-28 04:20:00,
2013-08-27 23:22:00,74.4,70.6,30.04,NW,323,0.0,0.0,88,0.00,,CLR,0.00,VWS V14.01,2013-08-28 04:22:00,
2013-08-27 23:27:00,74.4,70.6,30.04,NW,323,0.0,0.0,88,0.00,,CLR,0.00,VWS V14.01,2013-08-28 04:27:00,
2013-08-27 23:30:00,74.6,70.8,30.04,NW,323,0.0,0.0,88,0.00,,CLR,0.00,VWS V14.01,2013-08-28 04:30:00,
2013-08-27 23:32:00,74.2,70.4,30.05,NW,323,0.0,0.0,88,0.00,,CLR,0.00,VWS V14.01,2013-08-28 04:32:00,
2013-08-27 23:37:00,74.2,70.4,30.05,NW,323,0.0,0.0,88,0.00,,CLR,0.00,VWS V14.01,2013-08-28 04:37:00,
2013-08-27 23:40:00,74.4,70.6,30.04,NW,323,0.0,0.0,88,0.00,,CLR,0.00,VWS V14.01,2013-08-28 04:40:00,
2013-08-27 23:42:00,74.1,70.7,30.05,NW,323,0.0,0.0,89,0.00,,CLR,0.00,VWS V14.01,2013-08-28 04:42:00,
2013-08-27 23:47:00,74.1,70.7,30.05,NW,323,0.0,0.0,89,0.00,,CLR,0.00,VWS V14.01,2013-08-28 04:47:00,
2013-08-27 23:50:00,74.2,70.4,30.05,NW,323,0.0,0.0,88,0.00,,CLR,0.00,VWS V14.01,2013-08-28 04:50:00,
2013-08-27 23:52:00,73.9,70.5,30.05,NW,323,0.0,0.0,89,0.00,,CLR,0.00,VWS V14.01,2013-08-28 04:52:00,
2013-08-27 23:57:00,73.9,70.8,30.05,NW,323,0.0,0.0,90,0.00,,CLR,0.00,VWS V14.01,2013-08-28 04:57:00,